Temperature
19 20 20 20 19 20 21 23 25 26 26 25 25 25 25 25 25 22 21 20 20 20 20 18 16 15 15 15 14 14 14 13 13 12 12 12 12 12 12 12 11 11 11 10 11 11 11 11 12
19 19 20 21 19 20 22 23 25 25 25 25 25 26 26 27 24 22 20 21 20 20 20 18 16 15 15 15 14 14 13 13 13 12 12 12 12 12 12 12 11 11 11 11 11 11 11 11 11
19 19 20 20 20 21 22 24 24 24 24 25 25 26 26 24 23 21 21 21 20 19 19 18 16 15 15 15 14 14 13 13 13 13 12 12 12 12 12 12 12 11 12 12 12 12 12 12 12
18 19 21 20 20 22 23 24 23 23 24 25 25 25 24 22 22 21 21 20 20 19 19 19 17 16 15 15 14 14 13 13 13 13 12 12 13 13 13 12 12 12 12 12 12 12 13 13 13
18 20 19 19 21 23 24 25 23 23 24 25 25 24 23 21 21 20 20 20 19 19 19 19 18 17 16 15 15 14 14 14 13 13 13 13 13 13 13 12 12 12 12 12 13 13 13 13 13
19 20 19 19 21 23 24 24 23 23 24 24 25 24 21 21 21 20 20 19 19 19 19 20 19 18 16 16 15 15 15 14 14 14 13 13 13 13 13 13 13 13 13 14 14 14 14 14 14
19 18 18 19 20 22 24 24 23 23 23 24 23 23 21 21 21 20 19 19 19 19 19 20 19 18 17 16 16 15 15 15 15 14 14 14 13 13 13 13 14 14 14 15 15 15 15 14 14
18 18 18 19 20 21 24 23 23 22 22 23 23 23 22 21 21 20 19 19 19 18 18 18 19 18 17 17 17 16 16 15 15 15 15 15 14 14 13 14 14 14 15 15 15 15 15 15 15
18 17 17 19 20 21 23 23 23 22 22 22 22 23 22 22 21 21 20 19 19 18 18 17 17 17 17 17 16 16 16 15 15 15 15 14 14 14 13 13 14 14 14 15 15 15 15 15 15
17 16 18 20 21 22 23 22 22 22 22 22 23 23 23 22 21 21 21 20 20 19 18 18 17 17 16 16 16 16 16 15 15 15 14 14 14 13 13 13 14 14 14 14 15 15 14 14 14
17 17 19 20 21 22 22 22 21 21 20 22 22 22 22 21 21 21 22 22 21 20 19 18 17 17 17 16 16 15 15 15 14 14 14 14 13 13 13 13 13 14 14 14 14 14 14 14 13
17 18 19 20 21 21 21 21 20 20 21 21 21 21 21 21 21 21 22 22 21 20 20 19 18 17 17 16 16 15 15 14 14 14 14 14 13 13 13 13 13 13 13 13 13 13 13 13 12
17 18 19 20 20 21 20 20 20 20 20 20 21 21 21 21 21 21 21 21 21 20 19 18 18 17 17 16 15 15 15 15 14 14 13 13 13 13 13 13 13 13 12 12 12 12 12 12 12
17 18 18 19 20 20 20 19 19 20 20 20 21 21 21 21 21 20 20 20 20 20 19 18 18 17 17 16 16 15 15 15 14 14 13 13 13 13 13 13 12 12 12 12 12 12 12 12 12
16 16 17 18 19 20 19 18 19 20 20 21 21 21 21 20 19 19 19 19 19 19 19 18 18 17 17 16 15 15 14 14 14 13 13 13 13 13 13 12 12 12 12 12 12 12 12 12 11
15 15 15 17 18 19 18 17 19 21 21 21 22 22 20 19 18 17 17 17 18 18 18 19 19 18 16 15 15 14 14 14 13 13 13 13 13 13 12 12 12 12 12 12 12 11 11 11 11
13 13 14 16 18 18 18 17 19 21 21 22 21 21 20 19 17 16 16 16 16 17 18 18 18 17 16 15 14 14 14 14 13 13 13 13 12 12 12 12 12 12 11 11 11 11 11 11 11
13 14 15 16 18 18 18 18 19 21 21 21 22 22 21 19 17 16 15 15 15 16 17 17 17 16 15 14 14 14 14 14 13 13 12 12 12 12 12 12 12 11 11 11 11 11 11 10 10
13 15 15 16 18 18 18 18 19 20 20 21 21 22 20 18 16 15 15 15 15 15 15 15 15 15 15 14 14 14 13 13 12 12 12 12 12 12 12 12 11 11 11 11 10 10 9 9 8
12 13 14 16 18 19 18 18 19 19 20 21 21 21 20 17 15 14 14 14 14 14 14 14 14 14 14 14 14 13 13 12 12 12 12 12 12 11 11 11 11 11 10 10 9 8 8 8 7
12 12 13 15 17 19 18 17 18 19 21 21 21 21 19 16 15 14 14 14 14 14 14 15 15 14 14 14 14 13 13 12 12 11 11 11 11 11 11 11 10 10 9 8 8 7 7 6 6
11 13 14 14 15 15 16 15 18 19 19 19 19 20 18 16 15 14 13 13 14 14 14 14 14 14 13 13 13 13 12 12 11 11 11 11 11 11 10 10 9 9 8 7 7 6 6 5 5
11 13 13 14 14 15 16 16 17 20 18 18 17 19 17 15 14 13 13 13 14 14 14 14 13 13 13 12 12 12 12 11 11 11 10 10 10 10 10 9 9 8 7 6 6 6 5 5 4
11 12 12 13 13 13 15 16 17 19 19 18 17 18 16 15 13 12 12 13 13 13 13 13 13 13 12 12 11 12 11 11 11 10 10 10 9 9 9 8 8 7 6 6 5 5 4 4 3
10 10 11 12 12 13 16 16 17 20 20 19 17 16 15 14 13 12 11 12 12 12 12 12 12 12 11 11 11 11 11 10 10 10 9 9 9 8 8 7 7 6 5 5 4 4 4 3 3
10 10 11 13 13 15 17 16 18 19 18 19 18 16 15 13 12 11 11 11 11 11 11 11 12 11 11 11 11 10 10 10 9 9 9 8 8 8 7 6 5 5 5 4 4 4 3 2 1
10 10 12 14 16 16 16 18 18 17 16 17 16 15 14 13 12 11 11 11 11 11 11 11 11 11 11 10 10 10 9 9 9 8 8 8 7 6 6 5 4 4 4 3 3 2 2 1 0
10 11 12 14 16 15 16 17 17 15 15 16 15 14 14 13 12 11 10 10 10 10 10 10 10 10 10 10 9 9 8 8 8 7 7 6 6 5 4 4 4 3 3 3 2 1 1 -0 -1
10 11 13 15 16 17 16 17 19 17 17 16 15 15 14 13 12 11 10 10 9 9 9 10 10 10 9 9 8 8 7 7 7 7 6 5 4 4 3 3 3 3 2 2 1 0 -0 -1 -2
11 12 14 15 16 17 17 16 18 17 17 16 16 16 14 13 12 11 10 9 9 9 9 9 9 9 8 8 7 7 7 6 6 5 5 4 3 3 3 3 2 2 2 1 -0 -1 -2 -3 -3
Wind_Speed
18 18 9 3 3 4 8 11 9 5 4 8 8 7 9 8 6 7 5 9 11 14 17 15 14 14 13 13 12 11 8 7 6 5 5 4 4 4 4 4 5 6 6 7 7 8 9 9 8
13 14 8 3 4 5 8 12 5 6 8 8 8 7 7 0 9 9 7 8 9 13 16 15 14 13 13 13 12 11 8 6 5 3 3 2 1 2 3 3 4 5 6 6 6 6 6 6 7
12 12 5 4 6 7 7 5 7 10 8 5 6 7 3 5 8 6 8 7 9 10 14 17 16 13 12 13 12 11 8 6 4 3 1 1 2 2 4 4 5 5 5 5 4 4 4 5 5
6 5 4 6 11 9 6 6 8 9 8 5 4 8 5 6 5 6 9 7 10 10 15 17 16 13 13 13 12 10 8 6 4 3 1 2 3 3 4 6 6 4 3 3 3 3 3 4 4
5 4 6 9 12 10 4 4 6 5 7 5 5 7 6 5 8 8 8 6 9 10 15 17 16 14 13 13 12 11 8 6 4 3 1 1 4 4 4 8 7 4 1 2 3 3 4 5 6
4 4 7 10 13 10 4 0 0 7 8 6 4 7 6 7 8 6 7 5 8 10 11 16 16 13 11 11 12 11 9 7 5 3 1 1 4 4 4 8 7 4 2 3 5 6 6 7 8
7 7 11 12 12 9 3 5 2 5 7 7 5 5 6 8 6 4 6 5 8 9 10 12 13 12 10 11 12 12 10 8 6 3 1 1 1 2 4 7 8 6 5 5 7 8 9 10 10
7 6 13 13 13 12 5 4 1 4 7 8 5 4 6 6 7 5 4 2 6 7 8 11 13 14 12 12 13 12 10 9 7 5 4 5 5 7 8 10 10 7 6 7 8 10 11 11 12
8 9 14 13 12 9 5 3 3 3 5 7 8 7 4 8 9 8 5 4 4 5 6 7 10 11 13 14 15 14 11 10 9 9 11 9 9 12 11 9 8 7 6 9 10 12 13 13 13
8 12 18 14 13 10 6 2 2 4 7 8 9 6 4 3 2 3 7 10 10 9 8 7 7 8 7 9 12 12 12 12 12 12 13 12 11 3 6 8 8 7 9 11 13 14 14 13 12
13 17 14 16 15 12 7 5 6 8 9 9 10 8 6 5 5 7 7 7 10 12 11 8 7 7 7 5 5 6 8 9 12 12 9 8 3 3 3 5 6 8 10 10 9 9 9 10 8
20 19 18 17 14 12 7 6 9 11 11 10 11 10 8 7 7 8 7 4 2 8 11 9 8 6 6 5 4 3 3 3 3 4 3 3 2 2 1 0 1 2 3 3 4 4 7 7 8
23 21 19 16 15 12 7 8 11 13 12 12 13 11 9 8 7 6 5 3 2 6 9 9 8 8 6 4 4 4 3 3 5 5 3 3 2 1 2 1 1 2 3 2 3 3 6 6 5
16 18 21 19 15 12 11 12 14 13 12 14 14 11 7 3 2 5 5 3 2 3 5 6 6 8 8 6 4 3 2 3 3 5 4 4 3 3 3 3 3 3 4 4 3 5 5 5 5
18 18 18 19 18 13 11 17 17 15 15 16 14 9 5 3 2 2 3 5 5 5 4 3 2 4 8 8 7 4 3 4 4 5 6 5 4 3 2 3 4 4 6 6 5 5 4 5 6
13 16 21 19 17 14 13 17 13 12 13 12 9 6 8 6 2 3 4 2 2 2 3 3 3 3 6 7 6 5 5 6 6 7 8 10 10 8 5 5 5 5 6 4 5 5 5 6 6
11 18 21 18 17 16 18 15 11 12 11 7 7 7 8 9 7 6 3 2 2 3 5 4 5 6 8 10 9 10 9 9 8 10 9 12 14 13 7 6 6 8 5 6 7 6 6 6 7
12 16 21 20 15 19 21 19 13 11 9 9 9 8 8 10 9 7 5 5 4 5 7 7 9 11 11 11 11 10 10 9 7 7 9 12 13 14 9 4 6 7 6 6 7 7 7 6 7
18 17 19 18 17 19 20 19 16 13 13 11 9 8 9 11 10 7 6 7 6 7 8 9 10 10 10 9 8 8 7 7 7 7 11 13 13 13 9 6 7 7 6 7 7 6 7 6 6
24 24 20 16 18 19 14 15 13 14 14 12 11 10 11 13 10 8 7 8 8 8 8 9 10 10 10 9 8 7 8 7 6 6 8 12 12 12 9 7 7 7 6 8 7 6 5 5 6
25 25 22 17 15 13 8 11 14 14 14 12 10 8 14 16 12 10 9 9 9 9 9 10 11 12 12 12 10 9 7 6 5 6 6 8 11 11 10 8 6 7 6 6 7 7 7 5 6
24 25 23 21 14 8 11 6 12 19 18 13 10 9 14 15 13 11 10 10 9 8 8 10 10 10 10 9 8 9 7 6 5 4 5 6 9 10 10 8 7 6 6 6 7 7 6 6 6
18 18 24 23 16 10 11 7 7 8 12 12 11 11 15 14 14 12 11 10 9 8 8 9 10 10 10 10 9 9 8 6 5 5 6 6 6 8 9 8 6 6 5 6 6 6 6 4 5
17 17 20 17 12 12 12 9 6 8 15 17 13 13 16 15 14 13 11 10 9 8 8 9 10 11 10 10 10 9 9 8 8 7 6 5 5 6 7 6 5 5 4 5 5 5 7 6 6
19 15 10 11 10 7 11 8 8 3 6 14 18 17 16 16 15 14 12 10 9 9 8 8 10 10 10 10 10 10 10 9 8 6 6 5 4 4 6 6 5 5 4 5 5 6 7 7 7
21 19 8 6 8 6 10 9 4 8 9 12 16 17 16 15 14 13 12 11 10 9 9 9 10 10 10 9 9 8 8 6 5 6 5 5 4 4 5 5 5 5 5 6 6 6 7 7 8
13 17 11 4 9 6 7 7 6 7 9 10 15 17 16 15 15 14 12 11 11 10 9 9 10 10 9 9 9 8 8 7 6 6 6 4 4 4 5 5 6 6 6 7 7 6 8 8 8
9 8 8 5 7 6 10 10 10 11 11 11 15 17 16 15 15 14 13 12 10 9 10 9 9 9 9 8 7 7 7 6 6 6 6 5 5 5 5 6 6 7 7 7 7 7 8 9 9
10 9 8 3 1 3 7 3 3 13 13 13 15 17 17 16 16 14 13 12 11 10 9 9 9 9 9 8 7 8 6 5 5 5 5 5 5 5 6 6 7 7 8 8 7 8 10 10 10
9 8 7 3 2 2 3 4 5 10 9 10 12 15 15 15 14 14 13 12 11 10 10 9 8 8 8 7 8 7 5 5 5 5 5 5 5 5 6 6 7 8 9 8 8 10 11 9 12
Wind_Direction
314 309 309 295 267 236 247 256 267 70 28 26 344 304 298 306 33 96 116 89 101 120 134 147 152 156 156 154 147 140 140 132 114 105 107 107 105 100 89 77 59 46 34 24 18 25 35 36 32
303 303 305 263 255 259 241 239 262 57 22 356 307 266 261 335 85 106 104 86 107 124 139 151 152 157 159 158 150 149 151 145 133 121 111 112 105 137 125 110 80 55 39 26 18 15 19 19 14
286 285 279 272 256 259 298 5 36 27 347 316 302 299 338 31 49 75 102 120 115 120 138 143 150 158 161 159 156 157 158 153 148 145 99 21 335 220 170 132 103 80 52 32 20 12 7 2 348
292 292 243 244 263 272 307 336 34 4 319 292 296 302 71 39 48 95 127 148 127 128 126 139 149 156 161 162 163 163 163 164 161 164 214 306 317 297 191 148 127 113 74 34 15 356 346 338 330
263 251 255 258 264 268 295 321 45 310 283 303 330 309 75 62 85 105 133 151 134 132 130 143 150 158 165 170 168 166 165 165 164 170 195 315 343 336 179 156 150 147 135 349 340 323 309 302 298
254 240 247 253 260 251 201 185 108 260 281 299 330 321 89 72 62 82 119 175 128 122 129 144 155 163 174 178 171 170 169 167 166 166 181 354 16 37 136 161 169 185 232 298 313 309 301 293 287
244 251 256 264 274 281 232 101 272 293 316 317 8 313 100 83 83 110 139 169 126 132 138 147 161 170 180 180 175 176 175 174 176 179 179 109 108 102 140 172 190 213 248 284 297 299 298 297 295
249 254 253 254 262 274 276 114 254 297 298 324 329 297 93 108 109 94 102 128 129 143 158 157 166 176 179 181 183 181 180 181 186 195 199 191 215 227 209 199 204 217 250 283 292 293 293 294 294
256 241 240 239 247 258 260 164 237 302 277 270 270 279 103 130 136 140 152 177 178 181 182 177 171 173 177 181 182 181 183 193 199 210 216 215 231 230 215 210 188 208 255 277 283 284 285 286 284
219 232 236 242 256 270 273 216 291 301 292 288 276 237 141 115 86 211 203 190 187 190 201 196 189 166 169 171 161 181 186 192 204 220 204 211 226 207 124 159 204 237 261 271 274 271 274 274 264
225 232 245 249 254 271 278 303 311 290 273 276 295 322 344 356 322 275 253 224 190 183 185 188 190 172 164 147 159 178 183 181 198 219 189 184 176 127 169 183 208 229 243 246 262 259 254 248 250
237 238 239 250 259 269 264 278 279 274 279 292 298 301 299 291 276 272 278 298 187 164 168 175 178 172 170 152 166 176 168 165 173 167 144 140 111 82 288 171 233 248 253 247 273 271 273 270 270
236 242 246 248 253 263 256 251 263 266 274 279 276 271 267 266 266 283 307 315 272 163 160 169 175 169 167 163 162 177 184 147 157 132 108 83 84 66 37 351 331 301 309 301 284 288 301 311 313
247 244 247 253 251 249 256 257 254 257 262 266 266 260 246 269 344 334 322 326 329 133 149 160 174 171 158 157 166 176 165 112 83 110 110 86 63 60 36 351 355 352 348 344 340 333 334 328 326
257 255 250 244 247 241 250 254 249 253 250 251 254 246 168 106 29 302 24 360 15 36 42 94 135 164 154 160 171 161 134 115 92 81 74 75 75 69 51 33 21 8 7 3 359 347 336 327 325
253 241 246 240 236 235 238 254 252 250 247 236 236 229 150 134 160 92 64 23 24 88 89 105 150 171 150 141 134 103 82 74 69 64 60 54 53 58 57 47 25 17 22 13 2 355 353 341 332
239 228 231 234 229 227 231 247 246 247 239 220 227 229 169 145 131 102 100 93 83 103 110 119 138 130 106 94 86 81 72 67 65 61 58 55 49 51 57 46 26 18 27 18 6 5 360 340 337
222 227 231 229 222 225 233 240 239 253 250 227 230 224 167 139 118 103 101 92 77 91 104 100 93 96 96 92 87 81 76 70 64 61 58 57 51 45 40 45 33 17 25 18 12 3 354 346 344
251 245 234 232 223 227 231 237 238 235 246 243 235 219 159 126 116 125 130 113 95 87 96 100 103 102 102 104 102 97 91 81 70 63 60 56 52 49 43 34 35 23 23 24 13 5 350 347 339
245 255 255 247 229 227 231 237 236 229 230 228 225 210 153 126 126 131 120 99 92 88 87 92 97 98 97 98 98 102 102 93 86 73 62 60 53 47 46 36 32 22 22 22 9 8 356 345 349
237 241 247 249 242 219 228 250 243 239 233 225 214 190 144 139 140 142 117 96 83 77 80 90 91 96 100 104 107 108 100 96 86 83 77 66 60 49 43 39 33 24 26 17 3 12 3 343 336
237 235 241 246 236 214 204 243 235 226 218 207 191 173 142 139 139 135 118 101 90 82 80 87 95 102 112 119 115 112 106 103 99 98 98 89 72 58 41 37 35 29 27 19 2 4 346 345 330
236 237 236 239 234 227 201 218 261 227 184 183 182 162 141 139 137 129 120 114 102 90 85 85 84 81 79 81 87 96 97 99 92 81 72 82 75 63 42 33 29 31 26 9 356 348 335 328 319
234 242 241 236 229 225 210 207 252 234 188 180 171 150 141 138 133 124 118 113 105 96 91 90 88 79 75 77 77 84 90 87 80 70 58 59 65 55 38 28 20 23 16 354 341 338 326 314 309
224 220 205 197 199 206 193 203 231 298 132 158 156 150 145 142 139 136 135 131 126 119 112 106 100 91 83 80 77 75 79 78 70 66 59 53 48 41 25 19 7 5 354 341 340 333 317 309 309
218 218 210 175 167 177 186 204 207 124 81 113 140 144 146 147 145 146 145 137 135 134 128 117 109 102 94 89 86 79 76 78 71 63 60 57 51 35 15 7 358 353 347 341 335 323 314 312 307
207 216 245 262 164 155 172 182 124 110 112 125 141 148 154 154 151 150 146 140 140 140 131 123 116 109 105 100 93 84 79 77 72 66 56 46 34 23 10 359 353 343 336 332 329 318 311 307 302
228 207 223 229 162 164 173 185 175 170 162 158 158 161 161 158 154 152 148 143 142 136 128 127 121 116 105 96 95 94 83 77 75 67 51 32 20 13 357 351 343 333 327 325 323 316 310 307 304
201 209 222 241 289 167 152 140 104 154 160 165 170 168 165 161 158 154 149 143 135 128 130 126 121 115 112 112 102 92 79 64 67 64 45 20 7 359 349 340 332 326 321 323 322 319 313 307 310
213 208 211 175 181 343 82 95 55 101 116 148 161 161 159 156 153 150 144 138 137 139 138 134 131 122 115 109 102 97 88 66 57 50 31 12 358 346 336 330 325 320 320 319 316 315 312 314 321
Height
1513 1512 1510 1509 1509 1510 1507 1494 1483 1482 1484 1488 1490 1490 1489 1487 1489 1500 1498 1495 1494 1493 1493 1494 1496 1498 1499 1501 1502 1502 1502 1502 1502 1501 1502 1503 1504 1505 1505 1505 1505 1505 1505 1505 1505 1505 1506 1506 1506
1513 1512 1511 1509 1510 1515 1504 1490 1484 1484 1488 1490 1490 1489 1486 1485 1489 1493 1494 1494 1494 1493 1493 1494 1496 1498 1499 1501 1502 1502 1502 1502 1502 1502 1502 1503 1504 1505 1506 1506 1505 1505 1505 1504 1504 1504 1504 1505 1505
1513 1513 1513 1508 1507 1508 1499 1486 1485 1487 1489 1491 1491 1488 1487 1489 1491 1493 1494 1494 1494 1494 1493 1494 1496 1498 1499 1500 1501 1502 1502 1502 1501 1502 1502 1503 1504 1505 1506 1506 1505 1505 1504 1503 1503 1503 1503 1503 1503
1514 1513 1510 1509 1507 1495 1490 1488 1488 1490 1492 1491 1491 1489 1489 1492 1492 1494 1494 1494 1495 1494 1494 1495 1496 1497 1498 1500 1500 1501 1501 1501 1501 1501 1502 1503 1504 1505 1506 1505 1505 1505 1504 1503 1503 1502 1502 1502 1502
1513 1512 1510 1509 1502 1491 1487 1488 1490 1493 1492 1491 1490 1490 1492 1494 1493 1494 1494 1495 1496 1495 1494 1495 1495 1496 1497 1498 1499 1500 1501 1501 1501 1501 1502 1503 1504 1504 1505 1505 1505 1504 1504 1503 1503 1502 1502 1502 1502
1512 1507 1511 1509 1498 1487 1486 1488 1491 1493 1491 1490 1490 1490 1494 1494 1493 1493 1494 1495 1496 1495 1494 1495 1495 1496 1497 1497 1498 1499 1500 1500 1500 1501 1501 1502 1503 1503 1504 1504 1504 1504 1503 1503 1502 1502 1501 1501 1501
1509 1507 1507 1503 1497 1489 1485 1487 1491 1491 1491 1491 1490 1491 1494 1493 1492 1493 1493 1495 1495 1495 1494 1494 1496 1496 1497 1497 1498 1499 1499 1500 1500 1500 1501 1501 1502 1503 1503 1503 1503 1503 1502 1502 1502 1501 1501 1500 1500
1505 1504 1502 1500 1498 1492 1485 1486 1490 1492 1492 1491 1491 1491 1492 1493 1492 1492 1493 1494 1495 1494 1494 1494 1495 1496 1497 1497 1498 1498 1499 1499 1499 1500 1500 1501 1501 1502 1503 1503 1503 1502 1502 1501 1501 1500 1500 1499 1499
1502 1504 1500 1496 1494 1488 1484 1486 1489 1490 1491 1491 1490 1491 1491 1491 1491 1491 1492 1492 1493 1493 1494 1494 1494 1495 1496 1496 1497 1498 1498 1499 1499 1500 1500 1501 1502 1502 1502 1502 1502 1502 1501 1501 1500 1500 1499 1498 1497
1497 1498 1492 1489 1486 1484 1483 1485 1487 1489 1489 1488 1488 1488 1488 1489 1490 1491 1491 1490 1490 1491 1492 1493 1495 1495 1496 1496 1497 1497 1498 1498 1499 1499 1500 1501 1502 1503 1503 1503 1502 1502 1501 1500 1500 1499 1498 1497 1496
1490 1489 1487 1485 1484 1483 1482 1484 1486 1488 1488 1487 1486 1486 1486 1487 1488 1489 1490 1490 1489 1488 1489 1491 1492 1494 1495 1496 1496 1497 1497 1498 1499 1499 1501 1501 1502 1502 1502 1502 1501 1500 1500 1499 1498 1497 1496 1495 1494
1486 1483 1483 1483 1483 1481 1481 1483 1485 1486 1485 1485 1484 1484 1484 1485 1486 1486 1487 1487 1487 1487 1487 1488 1490 1491 1493 1494 1495 1496 1497 1499 1499 1500 1501 1501 1501 1501 1501 1501 1500 1500 1499 1498 1497 1496 1495 1494 1493
1481 1480 1480 1480 1480 1479 1479 1481 1482 1482 1483 1482 1482 1482 1482 1482 1483 1483 1483 1483 1484 1485 1485 1486 1487 1488 1490 1492 1494 1495 1497 1498 1499 1499 1499 1500 1500 1500 1500 1500 1499 1498 1497 1496 1495 1494 1493 1492 1490
1478 1478 1478 1477 1476 1476 1477 1478 1479 1476 1479 1478 1477 1477 1477 1478 1478 1478 1479 1479 1481 1481 1482 1483 1484 1485 1487 1489 1491 1493 1496 1497 1498 1498 1498 1498 1498 1498 1498 1498 1497 1496 1495 1494 1493 1492 1490 1488 1487
1477 1476 1473 1471 1472 1473 1476 1474 1472 1472 1473 1471 1471 1472 1472 1472 1473 1474 1474 1475 1475 1476 1477 1479 1480 1482 1484 1486 1489 1492 1494 1495 1495 1496 1496 1496 1496 1496 1496 1495 1495 1494 1493 1492 1490 1489 1487 1485 1483
1474 1474 1473 1466 1467 1469 1475 1472 1465 1465 1464 1464 1465 1467 1468 1469 1471 1471 1470 1471 1471 1472 1473 1475 1476 1479 1482 1484 1487 1490 1491 1492 1492 1493 1494 1494 1494 1494 1493 1493 1493 1492 1491 1489 1488 1486 1484 1482 1480
1472 1469 1466 1464 1462 1464 1467 1465 1460 1460 1459 1459 1461 1463 1464 1466 1468 1468 1468 1469 1469 1470 1471 1472 1473 1476 1479 1481 1484 1485 1487 1489 1490 1491 1492 1492 1492 1492 1492 1491 1491 1490 1489 1487 1485 1483 1481 1478 1475
1467 1463 1461 1460 1457 1459 1460 1458 1455 1455 1455 1455 1457 1459 1461 1463 1465 1466 1467 1468 1468 1469 1469 1470 1472 1474 1476 1478 1481 1483 1485 1487 1489 1490 1491 1491 1491 1491 1490 1490 1489 1488 1486 1484 1482 1480 1477 1474 1471
1464 1459 1457 1453 1451 1452 1453 1452 1450 1450 1451 1451 1452 1454 1456 1459 1462 1465 1467 1467 1468 1469 1469 1470 1471 1473 1475 1477 1480 1482 1484 1487 1488 1490 1490 1491 1491 1490 1490 1489 1488 1486 1484 1481 1479 1476 1474 1471 1466
1467 1463 1458 1451 1445 1445 1447 1446 1443 1443 1443 1444 1447 1449 1451 1455 1460 1464 1466 1467 1468 1469 1470 1471 1472 1474 1476 1477 1480 1482 1484 1487 1489 1490 1491 1491 1490 1490 1489 1487 1486 1484 1481 1479 1476 1473 1470 1468 1465
1462 1462 1459 1455 1444 1439 1445 1447 1441 1436 1435 1437 1440 1443 1446 1451 1457 1463 1465 1466 1467 1469 1470 1471 1473 1475 1477 1479 1481 1483 1485 1487 1489 1490 1490 1490 1490 1489 1487 1485 1483 1481 1478 1476 1473 1471 1468 1465 1464
1458 1453 1455 1453 1450 1448 1447 1454 1435 1426 1427 1430 1434 1438 1442 1448 1455 1460 1463 1465 1467 1469 1471 1473 1475 1477 1479 1480 1482 1484 1485 1487 1488 1489 1489 1489 1488 1487 1485 1483 1480 1478 1476 1474 1471 1469 1467 1464 1461
1452 1450 1451 1449 1447 1446 1439 1445 1433 1415 1422 1426 1429 1434 1439 1446 1453 1458 1461 1464 1467 1469 1471 1473 1475 1477 1479 1481 1483 1484 1486 1487 1488 1488 1488 1487 1485 1484 1482 1480 1478 1475 1473 1471 1469 1467 1465 1462 1459
1449 1451 1448 1445 1445 1448 1437 1441 1433 1414 1412 1418 1425 1431 1437 1444 1451 1456 1460 1463 1466 1469 1471 1474 1476 1477 1480 1481 1483 1484 1485 1486 1487 1486 1486 1484 1483 1481 1480 1477 1475 1473 1471 1468 1466 1464 1461 1459 1455
1445 1448 1445 1443 1443 1439 1425 1431 1425 1406 1399 1406 1418 1427 1435 1442 1448 1453 1457 1461 1465 1468 1472 1474 1476 1477 1480 1481 1483 1483 1484 1485 1485 1484 1484 1483 1481 1479 1477 1475 1472 1470 1468 1466 1463 1461 1458 1454 1451
1434 1438 1433 1429 1434 1427 1418 1423 1411 1402 1403 1407 1416 1425 1434 1441 1446 1451 1456 1460 1464 1468 1471 1474 1476 1477 1479 1481 1482 1483 1483 1484 1483 1483 1482 1481 1480 1477 1475 1472 1470 1468 1465 1463 1460 1457 1453 1450 1446
1428 1428 1421 1414 1409 1416 1416 1409 1408 1405 1409 1411 1418 1425 1432 1439 1444 1449 1455 1459 1463 1467 1470 1473 1475 1476 1478 1479 1481 1481 1482 1482 1482 1481 1481 1479 1477 1475 1472 1470 1467 1465 1462 1459 1456 1452 1448 1445 1441
1419 1416 1418 1411 1408 1416 1414 1411 1409 1411 1412 1413 1417 1423 1430 1437 1442 1448 1453 1457 1462 1466 1469 1472 1474 1475 1476 1478 1479 1480 1480 1480 1480 1480 1478 1477 1474 1472 1469 1467 1465 1462 1459 1455 1451 1447 1443 1439 1435
1415 1414 1407 1400 1394 1404 1413 1411 1390 1399 1403 1409 1413 1419 1426 1433 1439 1445 1451 1456 1460 1464 1467 1470 1471 1473 1475 1476 1477 1478 1479 1479 1478 1477 1476 1474 1471 1469 1466 1464 1461 1458 1454 1450 1446 1441 1437 1432 1428
1406 1403 1399 1401 1399 1396 1401 1415 1393 1396 1400 1404 1410 1417 1425 1432 1438 1443 1449 1453 1458 1462 1465 1467 1469 1471 1473 1474 1475 1476 1477 1477 1476 1475 1473 1471 1469 1466 1464 1461 1458 1454 1450 1445 1440 1435 1431 1427 1422